Voltar ao catálogo

QIANFAN-44

AtivoComunicaçõesPO
NORAD 62245·PAYLOAD·🇨🇳 China

Lançado Dec 5, 2024 de Taiyuan Satellite Launch Center

Loading…

Próximas Passagens (próximas 24 horas)

TLE

AtualizadoSource: Space-Track

Época: Sep 14, 2026, 22:14 UTC

1 62245U 24232J   26257.92643540  .00000085  00000-0  11214-3 0  9992
2 62245  89.0160  13.3587 0015612 114.4087 245.8696 13.51029063136620

Acompanhe QIANFAN-44 em tempo real com AllMySat

Download on the App Store